Fort Eustis, VA

4:20 AM EDT on July 25, 2017 (GMT -0400)
Felker Army Air Field

Weather History for KFAF - January, 2013

Change the Weather History Date:

Monday, January 21, 2013

  Actual Average Record
Temperature  
Mean Temperature 42 °F -  
Max Temperature 54 °F 45 °F 68 °F (1999)
Min Temperature 31 °F 30 °F 18 °F (2008)
Degree Days  
Heating Degree Days 22    
Moisture  
Dew Point 28 °F    
Average Humidity 55    
Maximum Humidity 83    
Minimum Humidity 40    
Precipitation  
Precipitation 0.00 in - - ()
Sea Level Pressure  
Sea Level Pressure 29.97 in    
Wind  
Wind Speed 3 mph (SSW)    
Max Wind Speed 13 mph    
Max Gust Speed 22 mph    
Visibility 10 miles    
Events      
Averages and records for this station are not official NWS values.
T = Trace of Precipitation, MM = Missing Value Source: NWS Daily Summary

Daily Weather History Graph

Daily Weather History Graph

Search for Another Location

Airport or City:

Trip Planner

Search our weather history database for the weather conditions in past years. The results will help you decide how hot, cold, wet, or windy it might be!

Date:

Astronomy

Jan. 21, 2013 Rise Set
Actual Time 7:16 AM EST 5:19 PM EST
Civil Twilight 6:48 AM EST 5:47 PM EST
Nautical Twilight 6:16 AM EST 6:19 PM EST
Astronomical Twilight 5:45 AM EST 6:50 PM EST
Moon 12:58 PM EST (1/21) 2:42 AM EST (1/21)
Length of Visible Light 10h 59m
Length of Day
10h 03m
Waxing Gibbous, 75% of the Moon is Illuminated
Jan 21
Waxing Gibbous
Jan 26
Full
Feb 3
Last Quarter
Feb 10
New
Feb 17
First Quarter

Hourly Weather History & Observations

Time (EST) Temp. Windchill Dew Point Humidity Pressure Visibility Wind Dir Wind Speed Gust Speed Precip Events Conditions
12:55 AM 37.8 °F - 30.0 °F 74% 30.06 in 10.0 mi Calm Calm - N/A   Clear
1:55 AM 34.7 °F - 23.9 °F 65% 30.09 in 10.0 mi Calm Calm - N/A   Clear
2:55 AM 34.0 °F - 24.4 °F 68% 30.10 in 10.0 mi Calm Calm - N/A   Clear
3:55 AM 33.6 °F - 23.5 °F 67% 30.09 in 10.0 mi Calm Calm - N/A   Clear
4:55 AM 36.7 °F - 24.6 °F 62% 30.08 in 10.0 mi Calm Calm - N/A   Clear
5:55 AM 32.7 °F - 25.3 °F 74% 30.08 in 10.0 mi Calm Calm - N/A   Clear
6:55 AM 31.3 °F - 26.6 °F 83% 30.09 in 10.0 mi Calm Calm - N/A   Clear
7:55 AM 32.0 °F - 25.7 °F 78% 30.09 in 10.0 mi Calm Calm - N/A   Clear
8:55 AM 39.2 °F - 28.4 °F 65% 30.09 in 10.0 mi Calm Calm - N/A   Clear
9:55 AM 45.7 °F 41.0 °F 29.5 °F 53% 30.09 in 10.0 mi SE 9.2 mph - N/A   Clear
10:55 AM 48.2 °F - 29.5 °F 48% 30.06 in 10.0 mi SSE 10.4 mph - N/A   Clear
11:55 AM 50.2 °F - 31.3 °F 48% 30.02 in 10.0 mi SSE 10.4 mph - N/A   Clear
12:55 PM 52.5 °F - 30.7 °F 43% 29.97 in 10.0 mi SE 8.1 mph - N/A   Mostly Cloudy
1:55 PM 53.4 °F - 31.3 °F 43% 29.91 in 10.0 mi South 8.1 mph - N/A   Partly Cloudy
2:55 PM 54.1 °F - 31.3 °F 42% 29.88 in 10.0 mi SSE 5.8 mph - N/A   Clear
3:55 PM 54.9 °F - 31.6 °F 41% 29.85 in 10.0 mi SSW 6.9 mph - N/A   Clear
4:55 PM 53.8 °F - 30.7 °F 41% 29.83 in 10.0 mi SSW 5.8 mph - N/A   Clear
5:55 PM 51.3 °F - 31.3 °F 46% 29.81 in 10.0 mi SW 5.8 mph - N/A   Clear
6:55 PM 48.6 °F - 31.3 °F 51% 29.81 in 10.0 mi SSW 3.5 mph - N/A   Clear
7:55 PM 48.7 °F - 30.6 °F 50% 29.80 in 10.0 mi SW 8.1 mph - N/A   Clear
8:55 PM 50.0 °F - 26.4 °F 40% 29.84 in 10.0 mi West 10.4 mph 21.9 mph N/A   Clear
9:55 PM 48.0 °F - 25.2 °F 41% 29.87 in 10.0 mi WNW 12.7 mph - N/A   Clear
10:55 PM 45.3 °F 40.1 °F 25.7 °F 46% 29.88 in 10.0 mi NW 10.4 mph - N/A   Clear
11:55 PM 40.3 °F 38.2 °F 23.2 °F 51% 29.91 in 10.0 mi Variable 3.5 mph - N/A   Clear